Weather History for Sacramento, CA

Change the Weather History Date:

Wednesday, November 7, 2012

  Actual Average Record
Temperature  
Mean Temperature 61 °F -  
Max Temperature 74 °F 68 °F 81 °F (1958)
Min Temperature 48 °F 45 °F 32 °F (1942)
Degree Days  
Heating Degree Days 4    
Cooling Degree Days 0    
Growing Degree Days 10 (Base 50)    
Moisture  
Dew Point 51 °F    
Average Humidity 82    
Maximum Humidity 100    
Minimum Humidity 46    
Precipitation  
Precipitation 0.00 in 0.06 in 1.51 in (2002)
Month to date precipitation 0.17 0.40  
Year to date precipitation 11.20 13.59  
Since 1 July precipitation 1.34 1.69  
Sea Level Pressure  
Sea Level Pressure 29.97 in    
Wind  
Wind Speed 3 mph (South)    
Max Wind Speed 12 mph    
Max Gust Speed 14 mph    
Visibility 6 miles    
Events Fog    
T = Trace of Precipitation, MM = Missing Value Source: NWS Daily Summary

Daily Weather History Graph

Daily Weather History Graph

Search for Another Location

Airport:

Trip Planner

Search our weather history database for the weather conditions in past years. The results will help you decide how hot, cold, wet, or windy it might be!

Date:

Astronomy

Nov. 07, 2012 Rise Set
Actual Time 6:39 AM PST 4:59 PM PST
Civil Twilight 6:11 AM PST 5:27 PM PST
Nautical Twilight 5:40 AM PST 5:58 PM PST
Astronomical Twilight 5:09 AM PST 6:29 PM PST
Moon No Moon Rise 1:06 PM PST (11/7)
Length of Visible Light 11h 15m
Length of Day
10h 19m
Last Quarter, 42% of the Moon is Illuminated
Nov 7
Last Quarter
Nov 13
New
Nov 20
First Quarter
Nov 28
Full
Dec 6
Last Quarter

Hourly Weather History & Observations

Time (PST) Temp. Dew Point Humidity Pressure Visibility Wind Dir Wind Speed Gust Speed Precip Events Conditions
12:53 AM 53.1 °F 51.1 °F 93% 30.01 in 4.0 mi Calm Calm - N/A   Clear
1:53 AM 53.1 °F 50.0 °F 89% 30.01 in 5.0 mi Calm Calm - N/A   Clear
2:53 AM 52.0 °F 50.0 °F 93% 30.00 in 7.0 mi ESE 3.5 mph - N/A   Clear
3:53 AM 53.1 °F 48.9 °F 86% 29.99 in 10.0 mi SE 3.5 mph - N/A   Clear
4:53 AM 51.1 °F 46.9 °F 86% 30.01 in 10.0 mi Calm Calm - N/A   Clear
5:53 AM 48.9 °F 46.0 °F 90% 30.01 in 5.0 mi SE 3.5 mph - N/A   Clear
6:53 AM 48.0 °F 46.0 °F 93% 30.01 in 6.0 mi SE 3.5 mph - N/A   Clear
7:30 AM 51.8 °F 48.2 °F 88% 30.02 in 4.0 mi SSW 3.5 mph - N/A   Scattered Clouds
7:36 AM 51.8 °F 50.0 °F 94% 30.02 in 1.5 mi SSW 3.5 mph - N/A   Mostly Cloudy
7:43 AM 51.8 °F 48.2 °F 88% 30.02 in 0.2 mi SSW 4.6 mph - N/A Fog Fog
7:53 AM 51.1 °F 48.9 °F 92% 30.02 in 0.5 mi Calm Calm - N/A Fog Fog
7:59 AM 50.0 °F 48.2 °F 94% 30.03 in 0.2 mi SSW 3.5 mph - N/A Fog Fog
8:53 AM 50.0 °F 48.9 °F 96% 30.03 in 0.2 mi Calm Calm - N/A Fog Fog
9:16 AM 51.8 °F 50.0 °F 94% 30.03 in 0.2 mi Calm Calm - N/A Fog Fog
9:49 AM 53.6 °F 53.6 °F 100% 30.02 in 1.0 mi Calm Calm - N/A   Mist
9:50 AM 55.4 °F 53.6 °F 94% 30.02 in 1.2 mi Calm Calm - N/A   Overcast
10:00 AM 55.4 °F 53.6 °F 94% 30.02 in 2.5 mi Calm Calm - N/A   Mostly Cloudy
10:03 AM 55.4 °F 53.6 °F 94% 30.02 in 3.0 mi Calm Calm - N/A   Scattered Clouds
10:53 AM 64.9 °F 57.0 °F 75% 30.01 in 6.0 mi Variable 3.5 mph - N/A   Haze
11:53 AM 69.1 °F 53.1 °F 57% 29.99 in 10.0 mi SSW 6.9 mph - N/A   Clear
12:53 PM 72.0 °F 53.1 °F 51% 29.95 in 10.0 mi SW 6.9 mph - N/A   Clear
1:53 PM 73.0 °F 51.1 °F 46% 29.93 in 10.0 mi South 6.9 mph - N/A   Clear
2:53 PM 71.6 °F 53.6 °F 53% 29.91 in 10.0 mi SW 9.2 mph - N/A   Clear
3:53 PM 68.0 °F 53.1 °F 59% 29.91 in 10.0 mi SSW 9.2 mph - N/A   Clear
4:53 PM 63.0 °F 53.1 °F 70% 29.90 in 10.0 mi SSW 5.8 mph - N/A   Clear
5:53 PM 60.1 °F 53.1 °F 78% 29.90 in 10.0 mi South 5.8 mph - N/A   Clear
6:53 PM 57.9 °F 53.1 °F 84% 29.89 in 10.0 mi SSW 9.2 mph 17.3 mph N/A   Clear
7:53 PM 57.0 °F 52.0 °F 83% 29.89 in 10.0 mi SSW 8.1 mph - N/A   Clear
8:53 PM 57.0 °F 52.0 °F 83% 29.89 in 10.0 mi South 6.9 mph - N/A   Clear
9:53 PM 57.0 °F 51.1 °F 81% 29.88 in 10.0 mi South 6.9 mph - N/A   Clear
10:53 PM 55.9 °F 48.9 °F 77% 29.88 in 10.0 mi South 9.2 mph - N/A   Clear
11:53 PM 55.9 °F 48.0 °F 75% 29.87 in 10.0 mi SSW 10.4 mph 23.0 mph N/A   Clear